This demonstration page uses our WeatherBlox Daily Observations layout. Learn more.

Left ArrowRight Arrow

44.8408, -93.29828

Hourly Observations for September 27, 2022

Temp ( °F °C ) Dew Point ( °F °C ) Humidity (%) Winds ( mph kmh ) Pressure ( in mb ) Visibility ( mi km ) Precip ( " mm )
12:53 am 00:53 Mostly Clear 47 8.3 38 3.3 71 71 NW 5 7 30.09 1019 10 16 0.00 0.00
1:53 am 01:53 Cloudy 50 10 37 2.8 61 61 N 6 9 30.09 1019 10 16 0.00 0.00
2:53 am 02:53 Mostly Cloudy 50 10 35 1.7 56 56 N 6 9 30.10 1019 10 16 0.00 0.00
3:53 am 03:53 Cloudy with Light Rain 50 10 34 1.1 54 54 NNE 6 9 30.11 1020 10 16 0.01 0.13
4:53 am 04:53 Mostly Cloudy 49 9.4 35 1.7 59 59 NNW 6 9 30.13 1020 10 16 0.01 0.13
5:53 am 05:53 Mostly Cloudy 47 8.3 35 1.7 63 63 NNW 6 9 30.16 1021 10 16 0.00 0.00
6:53 am 06:53 Mostly Clear 46 7.8 34 1.1 63 63 N 9 15 30.18 1022 10 16 0.00 0.00
7:53 am 07:53 Mostly Sunny 46 7.8 34 1.1 63 63 N 8 13 30.21 1023 10 16 0.00 0.00
8:53 am 08:53 Sunny 49 9.4 33 0.6 54 54 NNE 10 17 30.23 1024 10 16 0.00 0.00
9:53 am 09:53 Sunny 51 10.6 32 0 48 48 NNE 10 17 30.26 1025 10 16 0.00 0.00
10:53 am 10:53 Sunny 53 11.7 32 0 44 44 N 13 20 30.27 1025 10 16 0.00 0.00
11:53 am 11:53 Sunny 55 12.8 29 -1.7 36 36 N 13 20 30.28 1025 10 16 0.00 0.00
12:53 pm 12:53 Sunny 57 13.9 29 -1.7 34 34 NNE 14 22 30.29 1026 10 16 0.00 0.00
1:53 pm 13:53 Sunny 58 14.4 30 -1.1 34 34 NNW 12 19 30.29 1026 10 16 0.00 0.00
2:53 pm 14:53 Sunny 59 15 27 -2.8 29 29 N 13 20 30.29 1026 10 16 0.00 0.00
3:53 pm 15:53 Mostly Sunny 60 15.6 26 -3.3 27 27 NNE 8 13 30.29 1026 10 16 0.00 0.00
4:53 pm 16:53 Mostly Sunny 59 15 27 -2.8 29 29 NNE 7 11 30.30 1026 10 16 0.00 0.00
5:53 pm 17:53 Mostly Sunny 57 13.9 26 -3.3 30 30 NE 12 19 30.31 1027 10 16 0.00 0.00
6:53 pm 18:53 Mostly Sunny 54 12.2 27 -2.8 35 35 NNE 9 15 30.34 1027 10 16 0.00 0.00
7:53 pm 19:53 Mostly Clear 51 10.6 30 -1.1 44 44 NE 6 9 30.35 1028 10 16 0.00 0.00
8:53 pm 20:53 Mostly Clear 49 9.4 32 0 52 52 NNE 5 7 30.37 1029 10 16 0.00 0.00
9:53 pm 21:53 Clear 45 7.2 34 1.1 65 65 NW 5 7 30.39 1029 10 16 0.00 0.00
10:53 pm 22:53 Clear 44 6.7 34 1.1 67 67 Calm 30.41 1030 10 16 0.00 0.00
11:53 pm 23:53 Clear 45 7.2 36 2.2 70 70 Calm 30.43 1030 10 16 0.00 0.00

Powered by AerisWeather